• en France
  • Liste des pays
  • À 7 jours
  • Température de l'eau
  • Carte satellitaire
  • Carte météo
  • Widgets météo
  • user-avatar
    Se connecter

    Météo par heure à Vinokurovo

    Ce jour, 16 Octobre, Mardi

    Heure Température Précipitation Vent Pression Humidité
    00:00 +9°C° 0 mm 3 m/s 760 mmHg 83%
    01:00 +9°C° 0 mm 3 m/s 760 mmHg 84%
    02:00 +8°C° 0 mm 3 m/s 760 mmHg 85%
    03:00 +8°C° 0 mm 3 m/s 760 mmHg 85%
    04:00 +8°C° 0 mm 3 m/s 760 mmHg 85%
    05:00 +8°C° 0 mm 3 m/s 759 mmHg 85%
    06:00 +8°C° 0 mm 3 m/s 759 mmHg 83%
    07:00 +9°C° 0 mm 3 m/s 759 mmHg 81%
    08:00 +9°C° 0 mm 3 m/s 759 mmHg 79%
    09:00 +10°C° 0 mm 3 m/s 759 mmHg 74%
    10:00 +12°C° 0 mm 3 m/s 759 mmHg 69%
    11:00 +14°C° 0 mm 3 m/s 759 mmHg 63%
    12:00 +14°C° 0 mm 3 m/s 759 mmHg 62%
    13:00 +16°C° 0 mm 3 m/s 759 mmHg 60%
    14:00 +17°C° 0 mm 3 m/s 759 mmHg 58%
    15:00 +16°C° 0 mm 3 m/s 759 mmHg 64%
    16:00 +14°C° 0 mm 2 m/s 759 mmHg 71%
    17:00 +13°C° 0 mm 2 m/s 759 mmHg 77%
    18:00 +12°C° 0 mm 2 m/s 759 mmHg 80%
    19:00 +10°C° 0 mm 2 m/s 759 mmHg 82%
    20:00 +10°C° 0 mm 2 m/s 760 mmHg 85%
    21:00 +9°C° 0 mm 2 m/s 760 mmHg 87%
    22:00 +9°C° 0 mm 2 m/s 760 mmHg 88%
    23:00 +8°C° 0 mm 2 m/s 760 mmHg 89%

    Demain, 17 Octobre, Mercredi

    Heure Température Précipitation Vent Pression Humidité
    00:00 +9°C° 0 mm 1 m/s 760 mmHg 90%
    01:00 +9°C° 0 mm 1 m/s 760 mmHg 91%
    02:00 +9°C° 0 mm 1 m/s 760 mmHg 91%
    03:00 +8°C° 0 mm 1 m/s 760 mmHg 92%
    04:00 +8°C° 0 mm 1 m/s 760 mmHg 92%
    05:00 +8°C° 0 mm 1 m/s 760 mmHg 92%
    06:00 +8°C° 0 mm 1 m/s 760 mmHg 91%
    07:00 +8°C° 0 mm 1 m/s 760 mmHg 90%
    08:00 +9°C° 0 mm 1 m/s 760 mmHg 88%
    09:00 +10°C° 0 mm 1 m/s 761 mmHg 82%
    10:00 +12°C° 0 mm 1 m/s 761 mmHg 75%
    11:00 +14°C° 0 mm 1 m/s 761 mmHg 68%
    12:00 +15°C° 0 mm 1 m/s 761 mmHg 66%
    13:00 +15°C° 0 mm 1 m/s 760 mmHg 64%
    14:00 +16°C° 0 mm 2 m/s 760 mmHg 63%
    15:00 +15°C° 0 mm 1 m/s 760 mmHg 70%
    16:00 +13°C° 0 mm 1 m/s 760 mmHg 76%
    17:00 +12°C° 0 mm 1 m/s 760 mmHg 83%
    18:00 +12°C° 0 mm 1 m/s 760 mmHg 86%
    19:00 +10°C° 0 mm 2 m/s 760 mmHg 88%
    20:00 +9°C° 0 mm 2 m/s 760 mmHg 91%
    21:00 +9°C° 0 mm 2 m/s 760 mmHg 91%
    22:00 +9°C° 0 mm 2 m/s 760 mmHg 92%
    23:00 +8°C° 0 mm 2 m/s 760 mmHg 92%

    Après-demain, 18 Octobre, Jeudi

    Heure Température Précipitation Vent Pression Humidité
    00:00 +8°C° 0 mm 2 m/s 760 mmHg 92%
    01:00 +8°C° 0 mm 2 m/s 760 mmHg 93%
    02:00 +8°C° 0 mm 2 m/s 760 mmHg 93%
    03:00 +7°C° 0 mm 2 m/s 760 mmHg 93%
    04:00 +7°C° 0 mm 2 m/s 760 mmHg 94%
    05:00 +7°C° 0 mm 2 m/s 759 mmHg 94%
    06:00 +7°C° 0 mm 2 m/s 759 mmHg 93%
    07:00 +7°C° 0 mm 2 m/s 759 mmHg 93%
    08:00 +7°C° 0 mm 2 m/s 759 mmHg 92%
    09:00 +9°C° 0 mm 2 m/s 759 mmHg 85%
    10:00 +12°C° 0 mm 2 m/s 759 mmHg 78%
    11:00 +13°C° 0 mm 2 m/s 759 mmHg 71%
    12:00 +14°C° 0 mm 2 m/s 758 mmHg 69%
    13:00 +15°C° 0 mm 2 m/s 758 mmHg 67%
    14:00 +16°C° 0 mm 2 m/s 758 mmHg 64%
    15:00 +15°C° 0 mm 2 m/s 757 mmHg 71%
    16:00 +13°C° 0 mm 2 m/s 757 mmHg 77%
    17:00 +12°C° 0 mm 2 m/s 757 mmHg 84%
    18:00 +12°C° 0 mm 2 m/s 757 mmHg 86%
    19:00 +10°C° 0 mm 2 m/s 757 mmHg 88%
    20:00 +10°C° 0 mm 2 m/s 757 mmHg 91%
    21:00 +10°C° 0 mm 2 m/s 757 mmHg 91%
    22:00 +11°C° 0 mm 1 m/s 757 mmHg 91%
    23:00 +10°C° 0 mm 1 m/s 757 mmHg 91%

    19 Octobre, Vendredi

    Heure Température Précipitation Vent Pression Humidité
    00:00 +10°C° 0 mm 1 m/s 757 mmHg 92%
    01:00 +10°C° 0 mm 1 m/s 757 mmHg 92%
    02:00 +10°C° 0 mm 1 m/s 757 mmHg 93%
    03:00 +9°C° 0 mm 1 m/s 757 mmHg 93%
    04:00 +9°C° 0 mm 1 m/s 757 mmHg 94%
    05:00 +9°C° 0 mm 1 m/s 757 mmHg 94%
    06:00 +9°C° 0 mm 1 m/s 757 mmHg 94%
    07:00 +10°C° 0 mm 1 m/s 757 mmHg 93%
    08:00 +9°C° 0 mm 2 m/s 757 mmHg 93%
    09:00 +10°C° 0 mm 2 m/s 758 mmHg 87%
    10:00 +10°C° 0 mm 2 m/s 758 mmHg 82%
    11:00 +11°C° 0 mm 3 m/s 758 mmHg 77%
    12:00 +11°C° 0 mm 3 m/s 758 mmHg 72%
    13:00 +12°C° 0 mm 2 m/s 758 mmHg 68%
    14:00 +12°C° 0 mm 2 m/s 758 mmHg 63%
    15:00 +10°C° 0 mm 2 m/s 758 mmHg 67%
    16:00 +9°C° 0 mm 2 m/s 758 mmHg 72%
    17:00 +8°C° 0 mm 2 m/s 758 mmHg 76%
    18:00 +8°C° 0 mm 1 m/s 759 mmHg 78%
    19:00 +7°C° 0 mm 1 m/s 759 mmHg 81%
    20:00 +6°C° 0 mm 1 m/s 759 mmHg 84%
    21:00 +6°C° 0 mm 1 m/s 759 mmHg 86%
    22:00 +6°C° 0 mm 1 m/s 759 mmHg 87%
    23:00 +5°C° 0 mm 1 m/s 760 mmHg 89%

    20 Octobre, Samedi

    Heure Température Précipitation Vent Pression Humidité
    00:00 +5°C° 0 mm 1 m/s 760 mmHg 90%
    01:00 +5°C° 0 mm 1 m/s 760 mmHg 92%
    02:00 +4°C° 0 mm 1 m/s 760 mmHg 93%
    03:00 +4°C° 0 mm 1 m/s 760 mmHg 93%
    04:00 +4°C° 0 mm 1 m/s 760 mmHg 94%
    05:00 +4°C° 0 mm 1 m/s 760 mmHg 94%
    06:00 +4°C° 0 mm 1 m/s 760 mmHg 93%
    07:00 +4°C° 0 mm 1 m/s 760 mmHg 93%
    08:00 +4°C° 0 mm 1 m/s 760 mmHg 92%
    09:00 +6°C° 0 mm 1 m/s 760 mmHg 85%
    10:00 +7°C° 0 mm 1 m/s 760 mmHg 78%
    11:00 +9°C° 0 mm 1 m/s 760 mmHg 71%
    12:00 +9°C° 0 mm 1 m/s 760 mmHg 69%
    13:00 +10°C° 0 mm 1 m/s 760 mmHg 67%
    14:00 +10°C° 0 mm 1 m/s 760 mmHg 64%
    15:00 +9°C° 0 mm 1 m/s 759 mmHg 71%
    16:00 +8°C° 0 mm 1 m/s 759 mmHg 77%
    17:00 +7°C° 0 mm 1 m/s 759 mmHg 83%
    18:00 +6°C° 0 mm 1 m/s 759 mmHg 84%
    19:00 +6°C° 0 mm 1 m/s 759 mmHg 86%
    20:00 +6°C° 0 mm 1 m/s 759 mmHg 87%
    21:00 +5°C° 0 mm 1 m/s 759 mmHg 89%
    22:00 +5°C° 0 mm 1 m/s 759 mmHg 90%
    23:00 +5°C° 0 mm 1 m/s 759 mmHg 92%

    21 Octobre, Dimanche

    Heure Température Précipitation Vent Pression Humidité
    00:00 +4°C° 0 mm 1 m/s 759 mmHg 93%
    01:00 +4°C° 0 mm 1 m/s 759 mmHg 93%
    02:00 +3°C° 0 mm 2 m/s 759 mmHg 94%
    03:00 +2°C° 0 mm 2 m/s 759 mmHg 94%
    04:00 +2°C° 0 mm 2 m/s 759 mmHg 95%
    05:00 +2°C° 0 mm 2 m/s 759 mmHg 95%
    06:00 +2°C° 0 mm 2 m/s 759 mmHg 94%
    07:00 +3°C° 0 mm 2 m/s 759 mmHg 93%
    08:00 +3°C° 0 mm 2 m/s 759 mmHg 92%
    09:00 +3°C° 0 mm 3 m/s 758 mmHg 87%
    10:00 +5°C° 0 mm 3 m/s 758 mmHg 82%
    11:00 +7°C° 0 mm 3 m/s 758 mmHg 77%
    12:00 +7°C° 0 mm 4 m/s 757 mmHg 75%
    13:00 +8°C° 0 mm 4 m/s 757 mmHg 74%
    14:00 +8°C° 0 mm 4 m/s 756 mmHg 73%
    15:00 +8°C° 0 mm 4 m/s 756 mmHg 76%
    16:00 +8°C° 0 mm 4 m/s 756 mmHg 79%
    17:00 +7°C° 0 mm 4 m/s 756 mmHg 82%
    18:00 +8°C° 0 mm 4 m/s 755 mmHg 84%
    19:00 +8°C° 0 mm 4 m/s 755 mmHg 85%
    20:00 +8°C° 0 mm 4 m/s 755 mmHg 87%
    21:00 +8°C° 0 mm 4 m/s 754 mmHg 88%
    22:00 +10°C° 0 mm 4 m/s 754 mmHg 88%
    23:00 +10°C° 0 mm 4 m/s 753 mmHg 89%
    Voir plus